Time,TemperatureF,DewpointF,PressureIn,WindDirection,WindDirectionDegrees,WindSpeedMPH,WindSpeedGustMPH,Humidity,HourlyPrecipIn,Conditions,Clouds,dailyrainin,SoftwareType,DateUTC
2013-05-17 00:14:00,73.4,67.0,30.00,WSW,246,6.0,8.0,79,0.00,,,0.00,weatherlink.com 1.10,2013-05-17 04:14:00,
2013-05-17 00:29:00,73.4,66.0,30.00,WSW,240,7.0,9.0,78,0.00,,,0.00,weatherlink.com 1.10,2013-05-17 04:29:00,
2013-05-17 00:44:00,72.9,66.0,30.00,WSW,250,4.0,11.0,80,0.00,,,0.00,weatherlink.com 1.10,2013-05-17 04:44:00,
2013-05-17 00:59:00,73.1,66.0,29.99,SW,236,3.0,14.0,79,0.00,,,0.00,weatherlink.com 1.10,2013-05-17 04:59:00,
2013-05-17 01:14:00,73.1,66.0,29.99,WSW,251,3.0,11.0,79,0.00,,,0.00,weatherlink.com 1.10,2013-05-17 05:14:00,
2013-05-17 01:29:00,73.1,66.0,29.99,WNW,288,2.0,12.0,79,0.00,,,0.00,weatherlink.com 1.10,2013-05-17 05:29:00,
2013-05-17 01:44:00,72.9,66.0,29.99,WSW,244,5.0,12.0,80,0.00,,,0.00,weatherlink.com 1.10,2013-05-17 05:44:00,
2013-05-17 01:59:00,72.8,66.0,30.00,NW,309,1.0,6.0,80,0.00,,,0.00,weatherlink.com 1.10,2013-05-17 05:59:00,
2013-05-17 02:14:00,72.6,66.0,30.00,NW,316,2.0,7.0,80,0.00,,,0.00,weatherlink.com 1.10,2013-05-17 06:14:00,
2013-05-17 02:29:00,72.6,67.0,30.00,West,279,4.0,6.0,81,0.00,,,0.00,weatherlink.com 1.10,2013-05-17 06:29:00,
2013-05-17 02:44:00,72.8,67.0,30.00,SW,227,3.0,6.0,81,0.00,,,0.00,weatherlink.com 1.10,2013-05-17 06:44:00,
2013-05-17 02:59:00,72.6,67.0,30.00,West,265,3.0,8.0,82,0.00,,,0.00,weatherlink.com 1.10,2013-05-17 06:59:00,
2013-05-17 03:14:00,72.1,67.0,30.00,West,259,2.0,5.0,83,0.00,,,0.00,weatherlink.com 1.10,2013-05-17 07:14:00,
2013-05-17 03:29:00,71.9,67.0,30.00,West,264,1.0,4.0,83,0.00,,,0.00,weatherlink.com 1.10,2013-05-17 07:29:00,
2013-05-17 03:44:00,71.9,67.0,30.00,WNW,294,3.0,4.0,83,0.00,,,0.00,weatherlink.com 1.10,2013-05-17 07:44:00,
2013-05-17 03:59:00,72.1,66.0,30.00,West,262,1.0,5.0,81,0.00,,,0.00,weatherlink.com 1.10,2013-05-17 07:59:00,
2013-05-17 04:14:00,72.3,66.0,30.00,WSW,243,4.0,5.0,80,0.00,,,0.00,weatherlink.com 1.10,2013-05-17 08:14:00,
2013-05-17 04:29:00,72.5,65.0,30.00,West,271,4.0,7.0,78,0.00,,,0.00,weatherlink.com 1.10,2013-05-17 08:29:00,
2013-05-17 04:44:00,72.5,65.0,30.01,West,260,1.0,6.0,78,0.00,,,0.00,weatherlink.com 1.10,2013-05-17 08:44:00,
2013-05-17 04:59:00,72.0,66.0,30.02,West,261,1.0,5.0,80,0.00,,,0.00,weatherlink.com 1.10,2013-05-17 08:59:00,
2013-05-17 05:15:00,71.5,65.0,30.02,West,281,1.0,5.0,80,0.00,,,0.00,weatherlink.com 1.10,2013-05-17 09:15:00,
2013-05-17 05:30:00,71.1,65.0,30.03,West,269,3.0,5.0,81,0.00,,,0.00,weatherlink.com 1.10,2013-05-17 09:30:00,
2013-05-17 05:45:00,70.8,65.0,30.03,WNW,302,2.0,5.0,82,0.00,,,0.00,weatherlink.com 1.10,2013-05-17 09:45:00,
2013-05-17 06:00:00,70.5,65.0,30.04,WNW,293,3.0,6.0,82,0.00,,,0.00,weatherlink.com 1.10,2013-05-17 10:00:00,
2013-05-17 06:15:00,70.4,65.0,30.05,WNW,290,3.0,4.0,83,0.00,,,0.00,weatherlink.com 1.10,2013-05-17 10:15:00,
2013-05-17 06:30:00,70.5,65.0,30.05,WSW,250,1.0,6.0,83,0.00,,,0.00,weatherlink.com 1.10,2013-05-17 10:30:00,
2013-05-17 06:45:00,70.4,65.0,30.06,West,261,7.0,9.0,83,0.00,,,0.00,weatherlink.com 1.10,2013-05-17 10:45:00,
2013-05-17 07:00:00,70.6,66.0,30.06,WNW,286,3.0,6.0,84,0.00,,,0.00,weatherlink.com 1.10,2013-05-17 11:00:00,
2013-05-17 07:15:00,71.2,66.0,30.06,NW,313,3.0,10.0,83,0.00,,,0.00,weatherlink.com 1.10,2013-05-17 11:15:00,
2013-05-17 07:30:00,71.5,66.0,30.07,NW,307,4.0,11.0,83,0.00,,,0.00,weatherlink.com 1.10,2013-05-17 11:30:00,
2013-05-17 07:45:00,71.7,66.0,30.07,West,278,4.0,8.0,83,0.00,,,0.00,weatherlink.com 1.10,2013-05-17 11:45:00,
2013-05-17 08:00:00,72.0,66.0,30.07,West,263,4.0,9.0,82,0.00,,,0.00,weatherlink.com 1.10,2013-05-17 12:00:00,
2013-05-17 08:15:00,71.9,66.0,30.08,WSW,258,2.0,11.0,82,0.00,,,0.00,weatherlink.com 1.10,2013-05-17 12:15:00,
2013-05-17 08:30:00,71.8,66.0,30.09,WNW,300,3.0,8.0,82,0.00,,,0.00,weatherlink.com 1.10,2013-05-17 12:30:00,
2013-05-17 08:45:00,71.9,66.0,30.09,West,281,3.0,7.0,82,0.00,,,0.00,weatherlink.com 1.10,2013-05-17 12:45:00,
2013-05-17 09:00:00,72.6,67.0,30.09,West,276,2.0,10.0,81,0.00,,,0.00,weatherlink.com 1.10,2013-05-17 13:00:00,
2013-05-17 09:15:00,73.5,67.0,30.09,NW,314,3.0,9.0,79,0.00,,,0.00,weatherlink.com 1.10,2013-05-17 13:15:00,
2013-05-17 09:30:00,75.5,67.0,30.09,NW,315,4.0,9.0,75,0.00,,,0.00,weatherlink.com 1.10,2013-05-17 13:30:00,
2013-05-17 09:45:00,76.4,67.0,30.09,WNW,288,5.0,10.0,73,0.00,,,0.00,weatherlink.com 1.10,2013-05-17 13:45:00,
2013-05-17 10:00:00,77.9,67.0,30.09,NW,307,2.0,8.0,69,0.00,,,0.00,weatherlink.com 1.10,2013-05-17 14:00:00,
2013-05-17 10:15:00,79.1,67.0,30.09,NNW,342,1.0,7.0,67,0.00,,,0.00,weatherlink.com 1.10,2013-05-17 14:15:00,
2013-05-17 10:30:00,79.9,66.0,30.09,NNE,22,4.0,7.0,62,0.00,,,0.00,weatherlink.com 1.10,2013-05-17 14:30:00,
2013-05-17 10:45:00,79.6,64.0,30.09,NW,310,4.0,7.0,60,0.00,,,0.00,weatherlink.com 1.10,2013-05-17 14:45:00,
2013-05-17 11:00:00,80.0,65.0,30.09,WNW,301,4.0,6.0,61,0.00,,,0.00,weatherlink.com 1.10,2013-05-17 15:00:00,
2013-05-17 11:15:00,80.5,65.0,30.09,SW,224,0.0,4.0,59,0.00,,,0.00,weatherlink.com 1.10,2013-05-17 15:15:00,
2013-05-17 11:30:00,80.3,64.0,30.09,NW,321,2.0,8.0,57,0.00,,,0.00,weatherlink.com 1.10,2013-05-17 15:30:00,
2013-05-17 11:45:00,79.7,66.0,30.10,East,91,3.0,7.0,64,0.00,,,0.00,weatherlink.com 1.10,2013-05-17 15:45:00,
2013-05-17 12:00:00,79.3,70.0,30.10,South,184,4.0,7.0,72,0.00,,,0.00,weatherlink.com 1.10,2013-05-17 16:00:00,
2013-05-17 12:15:00,80.6,67.0,30.09,SSE,151,4.0,7.0,64,0.00,,,0.00,weatherlink.com 1.10,2013-05-17 16:15:00,
2013-05-17 12:30:00,80.5,70.0,30.09,SSE,150,2.0,6.0,71,0.00,,,0.00,weatherlink.com 1.10,2013-05-17 16:30:00,
2013-05-17 12:45:00,79.4,70.0,30.09,SSW,198,6.0,6.0,73,0.00,,,0.00,weatherlink.com 1.10,2013-05-17 16:45:00,
2013-05-17 13:00:00,79.5,71.0,30.09,South,174,5.0,8.0,75,0.00,,,0.00,weatherlink.com 1.10,2013-05-17 17:00:00,
2013-05-17 13:15:00,78.3,70.0,30.09,South,185,6.0,8.0,75,0.00,,,0.00,weatherlink.com 1.10,2013-05-17 17:15:00,
2013-05-17 13:30:00,77.4,70.0,30.09,SSW,204,5.0,9.0,78,0.00,,,0.00,weatherlink.com 1.10,2013-05-17 17:30:00,
2013-05-17 13:45:00,79.0,71.0,30.09,South,180,2.0,6.0,77,0.00,,,0.00,weatherlink.com 1.10,2013-05-17 17:45:00,
2013-05-17 14:00:00,79.3,70.0,30.09,ESE,116,2.0,4.0,73,0.00,,,0.00,weatherlink.com 1.10,2013-05-17 18:00:00,
2013-05-17 14:15:00,78.9,71.0,30.09,SE,127,2.0,4.0,76,0.00,,,0.00,weatherlink.com 1.10,2013-05-17 18:15:00,
2013-05-17 14:30:00,77.4,70.0,30.09,SE,126,4.0,5.0,79,0.00,,,0.00,weatherlink.com 1.10,2013-05-17 18:30:00,
2013-05-17 14:45:00,77.1,70.0,30.09,SE,139,5.0,7.0,78,0.00,,,0.00,weatherlink.com 1.10,2013-05-17 18:45:00,
2013-05-17 15:00:00,76.2,69.0,30.10,SE,141,3.0,6.0,79,0.00,,,0.00,weatherlink.com 1.10,2013-05-17 19:00:00,
2013-05-17 15:15:00,76.2,69.0,30.10,ESE,118,4.0,6.0,77,0.00,,,0.00,weatherlink.com 1.10,2013-05-17 19:15:00,
2013-05-17 15:31:00,76.0,69.0,30.09,SE,143,3.0,5.0,80,0.00,,,0.00,weatherlink.com 1.10,2013-05-17 19:31:00,
2013-05-17 15:46:00,76.7,68.0,30.09,ESE,110,4.0,7.0,74,0.00,,,0.00,weatherlink.com 1.10,2013-05-17 19:46:00,
2013-05-17 16:01:00,76.6,68.0,30.09,East,94,6.0,8.0,74,0.00,,,0.00,weatherlink.com 1.10,2013-05-17 20:01:00,
2013-05-17 16:16:00,76.0,69.0,30.09,SE,134,7.0,7.0,78,0.00,,,0.00,weatherlink.com 1.10,2013-05-17 20:16:00,
2013-05-17 16:31:00,77.0,67.0,30.09,East,96,5.0,9.0,71,0.00,,,0.00,weatherlink.com 1.10,2013-05-17 20:31:00,
2013-05-17 16:46:00,76.5,67.0,30.09,SE,134,7.0,9.0,73,0.00,,,0.00,weatherlink.com 1.10,2013-05-17 20:46:00,
2013-05-17 17:01:00,75.4,67.0,30.09,SE,133,5.0,9.0,76,0.00,,,0.00,weatherlink.com 1.10,2013-05-17 21:01:00,
2013-05-17 17:16:00,75.9,68.0,30.09,SSW,192,5.0,8.0,77,0.00,,,0.00,weatherlink.com 1.10,2013-05-17 21:16:00,
2013-05-17 17:31:00,76.9,68.0,30.09,South,181,4.0,8.0,75,0.00,,,0.00,weatherlink.com 1.10,2013-05-17 21:31:00,
2013-05-17 17:46:00,76.9,68.0,30.09,South,191,5.0,8.0,75,0.00,,,0.00,weatherlink.com 1.10,2013-05-17 21:46:00,
2013-05-17 18:01:00,76.9,68.0,30.09,SSW,209,4.0,7.0,74,0.00,,,0.00,weatherlink.com 1.10,2013-05-17 22:01:00,
2013-05-17 18:16:00,76.6,69.0,30.09,SW,214,4.0,8.0,76,0.00,,,0.00,weatherlink.com 1.10,2013-05-17 22:16:00,
2013-05-17 18:31:00,76.1,68.0,30.09,WSW,239,5.0,8.0,77,0.00,,,0.00,weatherlink.com 1.10,2013-05-17 22:31:00,
2013-05-17 18:46:00,75.6,68.0,30.10,SSW,200,6.0,8.0,77,0.00,,,0.00,weatherlink.com 1.10,2013-05-17 22:46:00,
2013-05-17 19:01:00,75.2,68.0,30.10,SSW,206,8.0,9.0,78,0.00,,,0.00,weatherlink.com 1.10,2013-05-17 23:01:00,
2013-05-17 19:16:00,74.6,67.0,30.10,South,189,8.0,10.0,78,0.00,,,0.00,weatherlink.com 1.10,2013-05-17 23:16:00,
2013-05-17 19:31:00,74.4,68.0,30.10,SW,219,3.0,10.0,79,0.00,,,0.00,weatherlink.com 1.10,2013-05-17 23:31:00,
2013-05-17 19:46:00,73.9,66.0,30.11,WSW,249,5.0,7.0,77,0.00,,,0.00,weatherlink.com 1.10,2013-05-17 23:46:00,
2013-05-17 20:01:00,73.2,66.0,30.11,SW,233,4.0,5.0,78,0.00,,,0.00,weatherlink.com 1.10,2013-05-18 00:01:00,
2013-05-17 20:16:00,72.9,66.0,30.11,WSW,252,2.0,6.0,80,0.00,,,0.00,weatherlink.com 1.10,2013-05-18 00:16:00,
2013-05-17 20:31:00,72.6,67.0,30.11,SSW,207,2.0,4.0,82,0.00,,,0.00,weatherlink.com 1.10,2013-05-18 00:31:00,
2013-05-17 20:46:00,73.2,69.0,30.12,SSE,152,1.0,5.0,85,0.00,,,0.00,weatherlink.com 1.10,2013-05-18 00:46:00,
2013-05-17 21:01:00,72.6,69.0,30.12,SE,132,4.0,6.0,87,0.00,,,0.00,weatherlink.com 1.10,2013-05-18 01:01:00,
2013-05-17 21:16:00,72.2,69.0,30.13,ESE,111,6.0,6.0,88,0.00,,,0.00,weatherlink.com 1.10,2013-05-18 01:16:00,
2013-05-17 21:31:00,71.9,68.0,30.13,East,83,6.0,7.0,87,0.00,,,0.00,weatherlink.com 1.10,2013-05-18 01:31:00,
2013-05-17 21:46:00,71.8,68.0,30.14,East,84,6.0,8.0,87,0.00,,,0.00,weatherlink.com 1.10,2013-05-18 01:46:00,
2013-05-17 22:01:00,72.0,68.0,30.14,East,100,5.0,8.0,87,0.00,,,0.00,weatherlink.com 1.10,2013-05-18 02:01:00,
2013-05-17 22:16:00,72.0,68.0,30.14,East,84,6.0,8.0,87,0.00,,,0.00,weatherlink.com 1.10,2013-05-18 02:16:00,
2013-05-17 22:31:00,71.9,68.0,30.15,ESE,106,4.0,7.0,86,0.00,,,0.00,weatherlink.com 1.10,2013-05-18 02:31:00,
2013-05-17 22:46:00,72.1,68.0,30.15,ESE,113,7.0,8.0,87,0.00,,,0.00,weatherlink.com 1.10,2013-05-18 02:46:00,
2013-05-17 23:01:00,72.0,68.0,30.15,SE,125,7.0,8.0,87,0.00,,,0.00,weatherlink.com 1.10,2013-05-18 03:01:00,
2013-05-17 23:16:00,72.1,68.0,30.15,East,84,4.0,8.0,86,0.00,,,0.00,weatherlink.com 1.10,2013-05-18 03:16:00,
2013-05-17 23:31:00,72.0,68.0,30.16,ESE,109,6.0,7.0,86,0.00,,,0.00,weatherlink.com 1.10,2013-05-18 03:31:00,
2013-05-17 23:46:00,72.0,67.0,30.16,ESE,122,6.0,6.0,85,0.00,,,0.00,weatherlink.com 1.10,2013-05-18 03:46:00,